Location: ????????
(60.4333°N, 46.4710°E)
Time: 19:24:05
(UTC+00:00)

CZ-2C R/B - Pass Details

Date: 25 November 2020
Orbit: 705 x 907 km, 98.1° (Epoch: 17 January)

Event Time Altitude Azimuth Distance (km) Brightness Sun altitude
Rises 13:06:58 0° 109° (ESE) 3,220 5.8 -7.2°
Reaches altitude 10° 13:09:47 10° 94° (E) 2,267 4.9 -7.5°
Maximum altitude 13:13:24 21° 47° (NE) 1,623 4.1 -7.9°
Drops below altitude 10° 13:16:56 10° 360° (N) 2,214 5.1 -8.3°
Sets 13:19:39 0° 344° (NNW) 3,124 6.0 -8.6°
